Effective Sunday, March 17, 2024, the National Weather Service National Data Buoy Center will discontinue its Dial-A-Buoy Interactive Voice Response system. For more information, see Service Change Notice 24-06 (PDF).

Station 41043 - NE PUERTO RICO - 170 NM NNE of San Juan, PR Image indicating link to RSS feed of recent meteorological observations for station 41043


Conditions at 41043 as of
(4:00 pm AST)
2000 GMT on 02/23/2024:
     

Click on the graph icon in the table below to see a time series plot of the last five days of that observation.

5-day plot - Wind Direction Wind Direction (WDIR):NNE ( 20 deg true )
5-day plot - Wind Speed Wind Speed (WSPD): 7.8 kts
5-day plot - Wind Gust Wind Gust (GST): 9.7 kts
5-day plot - Atmospheric Pressure Atmospheric Pressure (PRES):29.96 in
5-day plot - Pressure Tendency Pressure Tendency (PTDY):-0.04 in ( Falling )
5-day plot - Air Temperature Air Temperature (ATMP): 76.5 °F
5-day plot - Dew Point Dew Point (DEWP): 64.4 °F
5-day plot - Wind Speed at 10 Meters Wind Speed at 10 meters (WSPD10M): 7.8 kts
5-day plot - Wind Speed at 20 Meters Wind Speed at 20 meters (WSPD20M): 7.8 kts
5-day plot -  Wind Speed, Wind Gust and Atmospheric Pressure Combined plot of Wind Speed, Gust, and Air Pressure
Supplemental Measurements
Highest 1-minute Wind Speed
Time (AST)5-day plot - 1-Minute Wind Speed WSPD 5-day plot - 1-Minute Wind Direction WDIR
3:55 pm 7.8 kts-
Previous observations
TIME
(AST)
5-day plot - Wind Direction
WDIR
 
5-day plot - Wind Speed
WSPD
kts
5-day plot - Wind Gust
GST
kts
5-day plot - Wave Height
WVHT
ft
5-day plot - Dominant Wave Period
DPD
sec
5-day plot - Average Wave Period
APD
sec
5-day plot - Mean Wave Direction
MWD
 
5-day plot - Atmospheric Pressure
PRES
in
5-day plot - Pressure Tendency
PTDY
in
5-day plot - Air Temperature
ATMP
°F
5-day plot - Water Temperature
WTMP
°F
5-day plot - Dew Point
DEWP
°F
5-day plot - Salinity
SAL
psu
5-day plot - Visibility
VIS
nmi
5-day plot - Tide (above MLLW)
TIDE
ft
2024-02-23 03:50 pmNNE 7.8 9.7 7.5 87.2ENE29.96- 76.3 79.5 64.2---
2024-02-23 03:40 pmNNE 7.8 9.7 7.5-7.2ENE29.96- 76.3 79.5 64.6---
2024-02-23 03:30 pmNNE 7.8 9.7----29.96- 76.3 79.5 64.6---
2024-02-23 03:20 pmNNE 7.8 9.7 6.9 97.2 N29.96- 76.3 79.5 64.9---
2024-02-23 03:10 pmNNE 7.8 9.7 6.9-7.2 N29.96- 76.3 79.5 65.3---
2024-02-23 03:00 pmNNE 7.8 9.7----29.96-0.05 76.3 79.5 64.9---
2024-02-23 02:50 pmNNE 7.8 9.7 7.5 87.4 N29.96- 76.1 79.3 64.8---
2024-02-23 02:40 pmNNE 7.8 9.7----29.97- 76.1 79.3 64.9---
2024-02-23 02:30 pmNNE 7.8 9.7----29.97- 76.1 79.3 64.9---
2024-02-23 02:20 pmNNE 7.8 11.7 7.5 97.3 N29.97- 76.3 79.3 65.1---
2024-02-23 02:10 pmNNE 5.8 7.8 7.5-7.3 N29.97- 76.3 79.3 64.6---
2024-02-23 02:00 pmNNE 5.8 9.7----29.98-0.05 76.1 79.3 64.9---
2024-02-23 01:50 pm N 5.8 9.7 7.5 87.2 N29.98- 76.1 79.3 64.8---
2024-02-23 01:40 pmNNE 5.8 9.7----29.98- 76.1 79.3 64.9---
2024-02-23 01:30 pmNNE 5.8 9.7----29.98- 76.1 79.3 65.1---
2024-02-23 01:20 pm N 5.8 9.7 6.9 87.0NNW29.99- 76.1 79.3 65.1---
2024-02-23 01:10 pm N 7.8 9.7 6.9-7.0NNW29.99- 76.1 79.2 65.1---
2024-02-23 01:00 pm N 5.8 9.7----29.99-0.02 76.1 79.3 64.6---
2024-02-23 12:50 pm N 5.8 9.7 6.9 87.1NNE30.00- 76.1 79.3 64.9---
2024-02-23 12:40 pmNNE 5.8 9.7 6.9-7.1NNE30.00- 76.1 79.3 65.1---
2024-02-23 12:30 pmNNE 5.8 9.7----30.00- 76.1 79.3 64.9---
2024-02-23 12:20 pmNNE 5.8 9.7 6.9 87.0 N30.01- 76.1 79.3 64.8---
2024-02-23 12:10 pmNNE 5.8 9.7 6.9-7.0 N30.01- 76.3 79.2 65.1---
2024-02-23 12:00 pmNNE 7.8 9.7----30.01+0.00 76.1 79.2 65.3---
2024-02-23 11:50 amNNE 7.8 9.7 7.2 87.0NNW30.02- 76.1 79.2 65.5---
2024-02-23 11:40 am N 7.8 9.7----30.02- 76.1 79.2 65.8---
2024-02-23 11:30 amNNE 7.8 11.7----30.02- 76.1 79.2 65.5---
2024-02-23 11:20 amNNE 7.8 11.7 7.2 87.0NNW30.03- 76.1 79.2 65.3---
2024-02-23 11:10 amNNE 7.8 11.7 7.2-7.0NNW30.03- 76.1 79.2 65.5---
2024-02-23 11:00 amNNE 9.7 13.6----30.03+0.05 75.9 79.2 66.2---
2024-02-23 10:50 amNNE 9.7 13.6 6.9 96.9NNE30.03- 75.9 79.2 66.0---
2024-02-23 10:40 amNNE 9.7 13.6 6.9-6.9NNE30.03- 76.1 79.2 65.8---
2024-02-23 10:30 amNNE 7.8 11.7----30.03- 76.1 79.2 65.5---
2024-02-23 10:20 amNNE 9.7 11.7 7.2 87.1NNW30.02- 76.1 79.2 65.1---
2024-02-23 10:10 amNNE 9.7 11.7 7.2-7.1NNW30.02- 76.1 79.2 65.8---
2024-02-23 10:00 am N 9.7 15.5----30.02+0.06 76.1 79.2 66.2---
2024-02-23 09:50 amNNE 9.7 11.7 7.2 87.0 N30.01- 76.1 79.2 64.9---
2024-02-23 09:40 am N 9.7 13.6 7.2-7.0 N30.01- 76.1 79.2 65.5---
2024-02-23 09:30 am N 9.7 13.6----30.01- 76.1 79.2 65.5---
2024-02-23 09:20 amNNE 9.7 11.7 6.9 86.9 NE30.01- 76.1 79.2 65.1---
2024-02-23 09:10 am N 9.7 11.7 6.9-6.9 NE30.00- 76.1 79.2 65.5---
2024-02-23 09:00 amNNE 9.7 11.7----30.00+0.07 75.9 79.2 65.1---
2024-02-23 08:50 am N 9.7 13.6 7.5 87.0NNE30.00- 75.9 79.0 65.8---
2024-02-23 08:40 am N 9.7 11.7 7.5-7.0NNE29.99- 75.9 79.2 65.7---
2024-02-23 08:30 am N 9.7 11.7----29.99- 75.9 79.2 65.7---
2024-02-23 08:20 amNNE 9.7 13.6 6.9 96.7ENE29.99- 75.7 79.0 65.8---
2024-02-23 08:10 am N 9.7 13.6 6.9-6.7ENE29.98- 75.7 79.0 66.0---
2024-02-23 08:00 am N 9.7 13.6----29.98+0.06 75.7 79.2 66.0---
2024-02-23 07:50 am N 9.7 13.6 6.9 86.7 NE29.98- 75.7 79.0 66.2---
2024-02-23 07:40 am N 9.7 11.7----29.98- 75.6 79.0 66.0---
2024-02-23 07:30 am N 9.7 13.6----29.97- 75.7 79.0 66.2---
2024-02-23 07:20 am N 9.7 13.6 6.9 86.6NNW29.97- 75.6 79.0 66.0---
2024-02-23 07:10 am N 9.7 13.6 6.9-6.6NNW29.97- 75.6 79.0 65.5---
2024-02-23 07:00 am N 9.7 13.6----29.96+0.06 75.6 79.0 65.5---
2024-02-23 06:50 am N 9.7 13.6 7.2 86.6NNE29.96- 75.4 79.2 65.7---
2024-02-23 06:40 am N 11.7 15.5----29.96- 75.4 79.0 66.4---
2024-02-23 06:30 amNNW 9.7 13.6----29.95- 75.4 79.0 66.4---
2024-02-23 06:20 amNNW 9.7 15.5 6.9 96.7NNE29.95- 75.4 79.0 66.0---
2024-02-23 06:10 am N 11.7 15.5 6.9-6.7NNE29.94- 75.4 79.0 66.7---
2024-02-23 06:00 amNNW 11.7 13.6----29.93+0.03 75.4 79.0 66.6---
2024-02-23 05:50 am N 11.7 15.5 6.9 96.4NNE29.93- 75.4 79.0 66.4---
2024-02-23 05:40 am N 11.7 15.5 6.9-6.4NNE29.93- 75.4 79.0 66.4---
2024-02-23 05:30 am N 11.7 15.5----29.93- 75.6 79.0 66.0---
2024-02-23 05:20 amNNW 11.7 13.6----29.93- 75.6 79.0 66.0---
2024-02-23 05:10 amNNW 11.7 15.5 7.2-6.7NNE29.92- 75.6 79.0 66.2---
2024-02-23 05:02 am--- 7.2 9----------
2024-02-23 05:00 amNNW 11.7 15.5----29.92+0.00 75.6 79.0 67.1---
2024-02-23 04:50 am N 11.7 15.5 6.6 86.5 N29.92- 75.6 79.0 66.2---
2024-02-23 04:40 amNNW 11.7 15.5 6.6-6.5 N29.91- 75.7 79.0 66.4---
2024-02-23 04:30 amNNW 11.7 15.5----29.91- 75.7 79.2 67.1---
2024-02-23 04:20 amNNW 11.7 15.5 6.6 86.3ENE29.91- 75.7 79.2 66.9---
2024-02-23 04:10 amNNW 11.7 15.5 6.6-6.3ENE29.91- 75.7 79.2 67.5---
2024-02-23 04:00 amNNW 13.6 17.5----29.91-0.02 75.6 79.2 67.5---
2024-02-23 03:50 amNNW 11.7 15.5 6.6 96.3 NE29.91- 75.6 79.2 67.8---
2024-02-23 03:40 amNNW 11.7 15.5----29.91- 75.7 79.2 67.1---
2024-02-23 03:30 amNNW 11.7 15.5----29.91- 75.7 79.2 66.7---
2024-02-23 03:20 amNNW 11.7 15.5 7.2 86.6NNE29.90- 75.7 79.2 66.7---
2024-02-23 03:10 am NW 13.6 17.5----29.91- 75.6 79.2 67.5---
2024-02-23 03:00 am NW 11.7 17.5----29.91-0.04 75.7 79.2 67.1---
2024-02-23 02:50 am NW 11.7 15.5 6.9 96.5 NE29.91- 75.7 79.2 66.2---
2024-02-23 02:40 am NW 11.7 15.5 6.9-6.5 NE29.91- 75.7 79.2 66.4---
2024-02-23 02:30 am NW 11.7 15.5----29.91- 75.7 79.2 66.2---
2024-02-23 02:20 am NW 11.7 15.5 6.6 86.4 N29.91- 75.4 79.2 67.3---
2024-02-23 02:10 amNNW 5.8 11.7 6.6-6.4 N29.91- 74.5 79.2 67.3---
2024-02-23 02:00 am NW 13.6 19.4----29.92-0.03 74.8 79.2 67.1---
2024-02-23 01:50 amWNW 11.7 15.5 6.6 86.5ENE29.92- 75.9 79.2 66.6---
2024-02-23 01:40 amWNW 11.7 17.5----29.92- 75.9 79.2 66.6---
2024-02-23 01:30 amWNW 9.7 13.6----29.92- 75.9 79.2 66.6---
2024-02-23 01:20 am NW 9.7 15.5 7.2 86.5 N29.92- 75.9 79.2 66.0---
2024-02-23 01:10 am NW 9.7 13.6 7.2-6.5 N29.93- 75.7 79.2 65.7---
2024-02-23 01:00 am NW 9.7 13.6----29.93-0.02 75.9 79.2 65.8---
2024-02-23 12:50 am NW 9.7 13.6 6.6 86.4 NW29.93- 75.9 79.2 65.3---
2024-02-23 12:40 am NW 9.7 13.6----29.93- 75.9 79.2 65.8---
2024-02-23 12:30 am NW 9.7 13.6----29.93- 75.9 79.2 64.8---
2024-02-23 12:20 am NW 9.7 13.6 7.2 76.4 NW29.93- 75.9 79.0 65.1---
2024-02-23 12:10 am NW 9.7 15.5 7.2-6.4 NW29.94- 76.1 79.2 65.1---
2024-02-23 12:00 amWNW 11.7 15.5----29.94+0.00 76.1 79.0 64.9---
2024-02-22 11:50 pm NW 11.7 15.5 6.9 96.5ENE29.94- 76.1 79.0 64.6---
2024-02-22 11:40 pm NW 11.7 15.5----29.94- 76.3 79.2 64.4---
2024-02-22 11:30 pm NW 11.7 15.5----29.94- 76.1 79.2 64.4---
2024-02-22 11:20 pm NW 11.7 15.5 7.2 96.5ENE29.94- 76.1 79.2 64.6---
2024-02-22 11:10 pmWNW 11.7 17.5 7.2-6.5ENE29.94- 76.1 79.0 64.6---
2024-02-22 11:00 pm NW 13.6 17.5----29.94+0.02 76.1 79.2 64.8---
2024-02-22 10:50 pm NW 11.7 19.4 7.2 86.6 NW29.94- 76.1 79.2 65.7---
2024-02-22 10:40 pm NW 11.7 17.5----29.94- 76.1 79.2 65.3---
2024-02-22 10:30 pm NW 11.7 17.5----29.94- 76.3 79.2 65.8---
2024-02-22 10:20 pmWNW 7.8 13.6 6.9 96.3 E29.94- 75.9 79.2 65.7---
2024-02-22 10:10 pmWNW 9.7 13.6----29.95- 76.1 79.2 65.5---
2024-02-22 10:00 pmWNW 9.7 13.6----29.95+0.04 76.3 79.2 65.5---
2024-02-22 09:50 pmWNW 9.7 13.6 7.5 96.5ENE29.95- 76.3 79.2 65.1---
2024-02-22 09:40 pmWNW 9.7 15.5----29.95- 76.3 79.2 64.9---
2024-02-22 09:30 pmWNW 9.7 15.5----29.95- 76.3 79.2 64.9---
2024-02-22 09:20 pmWNW 11.7 15.5 6.9 76.3 NW29.95- 76.1 79.2 64.4---
2024-02-22 09:10 pmWNW 11.7 15.5 6.9-6.3 NW29.94- 76.3 79.2 64.4---
2024-02-22 09:00 pm NW 13.6 17.5----29.94+0.05 76.3 79.2 64.0---
2024-02-22 08:50 pmWNW 11.7 15.5 6.9 96.2 NE29.94- 76.3 79.2 64.2---
2024-02-22 08:40 pmWNW 13.6 17.5----29.93- 76.3 79.2 63.9---
2024-02-22 08:30 pmWNW 13.6 17.5----29.93- 76.5 79.2 64.4---
2024-02-22 08:20 pmWNW 13.6 17.5 6.6 96.4ENE29.93- 76.3- 63.7---
2024-02-22 08:10 pmWNW 11.7 17.5----29.93- 76.3 79.2 63.5---
2024-02-22 08:00 pmWNW 11.7 17.5----29.93+0.05 76.3 79.2 64.0---
2024-02-22 07:50 pmWNW 13.6 15.5 6.6 86.2 N29.92- 76.3 79.2 63.9---
2024-02-22 07:40 pmWNW 11.7 17.5----29.92- 76.5 79.2 64.0---
2024-02-22 07:20 pmWNW 11.7 15.5 6.6 76.1NNW29.91- 76.5 79.2 63.3---
2024-02-22 07:10 pmWNW 13.6 17.5----29.91- 76.5 79.2 63.5---
2024-02-22 07:00 pmWNW 11.7 15.5----29.91+0.04 76.5 79.2 62.2---
2024-02-22 06:50 pmWNW 13.6 17.5 7.2 76.3 NW29.91- 76.6 79.2 62.8---
2024-02-22 06:40 pmWNW 13.6 17.5----29.91- 76.6 79.2 62.2---
2024-02-22 06:30 pmWNW 11.7 17.5----29.90- 76.8 79.2 61.2---
2024-02-22 06:20 pmWNW 13.6 19.4 6.9 86.2 NW29.91- 77.0 79.2 61.7---
2024-02-22 06:10 pmWNW 13.6 17.5----29.89- 77.0 79.2 61.2---
2024-02-22 06:00 pmWNW 13.6 17.5----29.89+0.03 77.2 79.2 61.0---
2024-02-22 05:50 pm W 13.6 19.4 6.6 86.0 NW29.89- 77.4 79.2 61.2---
2024-02-22 05:40 pm W 15.5 19.4----29.88- 77.0 79.2 62.8---
2024-02-22 05:30 pmWNW 13.6 17.5----29.88- 76.8 79.2 64.9---
2024-02-22 05:20 pmWNW 13.6 17.5 6.9 86.2 NW29.88- 76.8 79.2 65.8---
2024-02-22 05:10 pmWNW 13.6 17.5 6.9-6.2 NW29.87- 76.8 79.2 65.7---
2024-02-22 05:00 pmWNW 11.7 15.5----29.87+0.01 76.8 79.2 65.8---
2024-02-22 04:50 pmWNW 13.6 17.5 6.9 86.1NNW29.87- 76.8 79.2 66.2---
2024-02-22 04:40 pmWNW 13.6 17.5 6.9-6.1NNW29.87- 76.6 79.2 65.7---
2024-02-22 04:30 pmWNW 13.6 17.5----29.87- 76.8 79.2 66.2---
2024-02-22 04:20 pmWNW 13.6 19.4 6.6 76.0 NW29.86- 76.6 79.2 65.1---
2024-02-22 04:10 pmWNW 13.6 17.5 6.6-6.0 NW29.86- 76.6 79.2 65.7---
2024-02-22 04:00 pmWNW 11.7 17.5----29.86-0.03 76.6 79.2 65.1---
2024-02-22 03:50 pmWNW 11.7 17.5 7.5 86.1NNW29.85- 76.5 79.2 65.8---

Detailed Wave Summary
for 41043 as of (3:40 pm AST)
1940 GMT on 02/23/2024:

These wave data are displayed in rounded times.

     

Click on the graph icon in the table below to see a time series plot of the last five days of that observation.

5-day plot - Significant Wave Height Significant Wave Height (WVHT): 7.5 ft
5-day plot - Swell Height Swell Height (SwH): 7.2 ft
5-day plot - Swell Period Swell Period (SwP): 8.3 sec
5-day plot - Swell Direction Swell Direction (SwD):ENE
5-day plot - Wind Wave Height Wind Wave Height (WWH): 1.3 ft
5-day plot - Wind Wave Period Wind Wave Period (WWP): 3.8 sec
5-day plot - Wind Wave Direction Wind Wave Direction (WWD): N
5-day plot - Wave Steepness Wave Steepness (STEEPNESS): STEEP
5-day plot - Average Wave Period Average Wave Period (APD): 7.2 sec
Previous observations
TIME
(AST)
5-day plot - Wave Height
WVHT
ft
5-day plot - Swell Height
SwH
ft
5-day plot - Swell Period
SwP
sec
5-day plot - Swell Direction
SwD
 
5-day plot - Wind Wave Height
WWH
ft
5-day plot - Wind Wave Period
WWP
sec
5-day plot - Wind Wave Direction
WWD
 
5-day plot - Wave Steepness
STEEPNESS
 
5-day plot - Average Wave Period
APD
sec
2024-02-23 03:10 pm 6.9 6.9 9.1 N 1.3 4.0 NNW AVERAGE 7.2
2024-02-23 02:40 pm 7.5 7.5 8.3 N 1.3 3.6 NNW STEEP 7.4
2024-02-23 02:10 pm 7.5 7.2 9.1 N 1.3 4.0 NNW AVERAGE 7.3
2024-02-23 01:40 pm 7.5 7.5 8.3 N 1.3 4.0 NNW STEEP 7.2
2024-02-23 01:10 pm 6.9 6.6 8.3NNW 1.3 4.0 NNW AVERAGE 7.0
2024-02-23 12:36 pm 6.9 6.6 8.3NNE 1.3 3.8 NNW AVERAGE 7.1
2024-02-23 12:10 pm 6.9 6.9 8.3 N 1.3 3.6 NNW AVERAGE 7.0
2024-02-23 11:40 am 7.2 6.9 8.3NNW 1.3 3.6 N AVERAGE 7.0
2024-02-23 11:10 am 7.2 6.9 8.3NNW 1.3 3.6 NNW STEEP 7.0
2024-02-23 10:40 am 6.9 6.9 9.1NNE 1.6 3.6 NNW AVERAGE 6.9
2024-02-23 10:10 am 7.2 6.9 8.3NNW 1.6 4.0 NW STEEP 7.1
2024-02-23 09:40 am 7.2 7.2 8.3 N 2.0 4.2 NNW STEEP 7.0
2024-02-23 09:06 am 6.9 6.6 8.3 NE 1.6 4.2 NW AVERAGE 6.9
2024-02-23 08:40 am 7.5 7.2 8.3NNE 1.6 4.2 NW STEEP 7.0
2024-02-23 08:10 am 6.9 6.6 9.1ENE 1.6 4.0 NW AVERAGE 6.7
2024-02-23 07:40 am 6.9 6.6 8.3 NE 2.0 4.2 NNW AVERAGE 6.7
2024-02-23 07:10 am 6.9 6.6 8.3NNW 2.0 4.0 NW AVERAGE 6.6
2024-02-23 06:40 am 7.2 6.6 8.3NNE 2.6 4.8 NNW STEEP 6.6
2024-02-23 06:10 am 6.9 6.2 9.1NNE 2.6 4.8 NW AVERAGE 6.7
2024-02-23 05:40 am 6.9 6.2 9.1NNE 3.0 5.6 NNW AVERAGE 6.4
2024-02-23 05:02 am 7.2 6.2 9.1NNE 3.0 5.0 NW AVERAGE 6.7
2024-02-23 04:36 am 6.6 6.2 7.7 N 2.6 4.5 NW STEEP 6.5
2024-02-23 04:10 am 6.6 5.6 8.3ENE 3.3 5.3 NW AVERAGE 6.3
2024-02-23 03:40 am 6.6 5.9 9.1 NE 3.3 5.3 NW AVERAGE 6.3
2024-02-23 03:10 am 7.2 6.2 7.7NNE 3.3 5.9 NW STEEP 6.6
2024-02-23 02:40 am 6.9 5.9 9.1 NE 3.3 5.9 NNW AVERAGE 6.5
2024-02-23 02:10 am 6.6 5.9 8.3 N 3.3 5.3 NW AVERAGE 6.4
2024-02-23 01:40 am 6.6 5.9 8.3ENE 2.6 4.8 WNW AVERAGE 6.5
2024-02-23 01:10 am 7.2 7.2 8.3 N 2.0 4.2 NW STEEP 6.5
2024-02-23 12:40 am 6.6 6.2 7.7 NW 2.0 4.3 NW STEEP 6.4
2024-02-23 12:10 am 7.2 6.9 7.1 NW 2.6 4.5 NW STEEP 6.4
2024-02-22 11:36 pm 6.9 6.6 9.1ENE 2.6 4.8 NW AVERAGE 6.5
2024-02-22 11:10 pm 7.2 6.2 9.1ENE 3.3 5.9 NW AVERAGE 6.5
2024-02-22 10:40 pm 7.2 6.6 7.7 NW 3.3 4.8 NNW STEEP 6.6
2024-02-22 10:06 pm 6.9 6.6 9.1 E 2.0 4.2 NW AVERAGE 6.3
2024-02-22 09:40 pm 7.5 6.9 9.1ENE 2.3 3.7 NW AVERAGE 6.5
2024-02-22 09:10 pm 6.9 6.2 7.1 NW 2.6 5.0 NW STEEP 6.3
2024-02-22 08:40 pm 6.9 5.9 9.1 NE 3.9 5.0 NW AVERAGE 6.2
2024-02-22 08:10 pm 6.6 5.9 9.1ENE 3.3 5.3 NNW AVERAGE 6.4
2024-02-22 07:40 pm 6.6 5.6 7.7 N 3.9 6.2 NNW STEEP 6.2
2024-02-22 07:10 pm 6.6 5.6 7.1NNW 3.9 6.2 NW STEEP 6.1
2024-02-22 06:40 pm 7.2 5.9 7.1 NW 3.9 5.3 NNW STEEP 6.3
2024-02-22 06:10 pm 6.9 5.6 7.7 NW 3.9 5.3 NW STEEP 6.2
2024-02-22 05:40 pm 6.6 4.6 7.7 NW 4.9 6.7 NW STEEP 6.0
2024-02-22 05:10 pm 6.9 5.6 7.7 NW 4.3 5.6 NW STEEP 6.2
2024-02-22 04:40 pm 6.9 5.6 7.7NNW 3.6 5.9 NNW STEEP 6.1
2024-02-22 04:10 pm 6.6 4.6 8.3NNW 4.6 6.7 NW STEEP 6.0

Plot of wave energy versus frequency (and period)